| time (UTC) | temp C | wind direction | speed KPH | gust KPH | rain 1hr cm | rain 24hr cm | rain mn cm | humidity % | barometer mb |
| 20260831231022 | 22 | 0.0 | 0.0 | 0.00 | 0.00 | 0.00 | 55 | 1017.9 | |
| 20260831230025 | 23 | 0.0 | 0.0 | 0.00 | 0.00 | 0.00 | 54 | 1018.0 | |
| 20260831225028 | 24 | 0.0 | 0.0 | 0.00 | 0.00 | 0.00 | 53 | 1017.9 | |
| 20260831224032 | 25 | 0.0 | 0.0 | 0.00 | 0.00 | 0.00 | 50 | 1017.9 | |
| 20260831223017 | 26 | 0.0 | 0.0 | 0.00 | 0.00 | 0.00 | 50 | 1017.8 | |
| 20260831222020 | 26 | 0.0 | 0.0 | 0.00 | 0.00 | 0.00 | 46 | 1017.7 | |
| 20260831221024 | 27 | 0.0 | 0.0 | 0.00 | 0.00 | 0.00 | 45 | 1017.6 | |
| 20260831220027 | 27 | 0.0 | 3.2 | 0.00 | 0.00 | 0.00 | 45 | 1017.6 | |
| 20260831215050 | 28 | 0.0 | 6.4 | 0.00 | 0.00 | 0.00 | 44 | 1017.7 | |
| 20260831214015 | 28 | 0.0 | 0.0 | 0.00 | 0.00 | 0.00 | 44 | 1017.7 | |
| 20260831213019 | 27 | 0.0 | 0.0 | 0.00 | 0.00 | 0.00 | 44 | 1017.8 | |
| 20260831212022 | 26 | 0.0 | 0.0 | 0.00 | 0.00 | 0.00 | 48 | 1017.9 | |
| 20260831211025 | 27 | 270 | 0.0 | 3.2 | 0.00 | 0.00 | 0.00 | 44 | 1018.0 |
| 20260831210023 | 27 | 0.0 | 0.0 | 0.00 | 0.00 | 0.00 | 42 | 1018.0 | |
| 20260831205020 | 27 | 239 | 1.6 | 8.0 | 0.00 | 0.00 | 0.00 | 42 | 1018.0 |
| 20260831204017 | 28 | 338 | 0.0 | 3.2 | 0.00 | 0.00 | 0.00 | 38 | 1018.0 |
| 20260831203020 | 28 | 0.0 | 0.0 | 0.00 | 0.00 | 0.00 | 39 | 1018.0 | |
| 20260831202044 | 28 | 0.0 | 0.0 | 0.00 | 0.00 | 0.00 | 38 | 1018.0 | |
| 20260831201027 | 29 | 0.0 | 0.0 | 0.00 | 0.00 | 0.00 | 36 | 1018.1 | |
| 20260831200031 | 28 | 203 | 0.0 | 1.6 | 0.00 | 0.00 | 0.00 | 37 | 1018.2 |
| 20260831195016 | 27 | 276 | 1.6 | 3.2 | 0.00 | 0.00 | 0.00 | 36 | 1018.2 |
| 20260831194039 | 28 | 225 | 0.0 | 1.6 | 0.00 | 0.00 | 0.00 | 35 | 1018.2 |
| 20260831193022 | 28 | 156 | 3.2 | 11.3 | 0.00 | 0.00 | 0.00 | 36 | 1018.3 |
| 20260831192025 | 28 | 303 | 1.6 | 4.8 | 0.00 | 0.00 | 0.00 | 37 | 1018.5 |
| 20260831191029 | 28 | 0.0 | 0.0 | 0.00 | 0.00 | 0.00 | 37 | 1018.7 | |
| 20260831190032 | 28 | 0.0 | 0.0 | 0.00 | 0.00 | 0.00 | 37 | 1018.7 | |
| 20260831185017 | 27 | 0.0 | 0.0 | 0.00 | 0.00 | 0.00 | 38 | 1018.9 | |
| 20260831184021 | 27 | 239 | 1.6 | 4.8 | 0.00 | 0.00 | 0.00 | 38 | 1019.0 |
| 20260831183024 | 27 | 270 | 0.0 | 1.6 | 0.00 | 0.00 | 0.00 | 38 | 1018.9 |
| 20260831182027 | 27 | 0.0 | 0.0 | 0.00 | 0.00 | 0.00 | 38 | 1018.9 | |
| 20260831181031 | 27 | 253 | 1.6 | 4.8 | 0.00 | 0.00 | 0.00 | 37 | 1019.1 |
| 20260831180016 | 27 | 248 | 0.0 | 1.6 | 0.00 | 0.00 | 0.00 | 38 | 1019.1 |
| 20260831175019 | 26 | 203 | 1.6 | 6.4 | 0.00 | 0.00 | 0.00 | 39 | 1019.2 |
| 20260831174022 | 25 | 0.0 | 0.0 | 0.00 | 0.00 | 0.00 | 43 | 1019.4 | |
| 20260831173026 | 25 | 0.0 | 1.6 | 0.00 | 0.00 | 0.00 | 44 | 1019.5 | |
| 20260831172023 | 26 | 0.0 | 0.0 | 0.00 | 0.00 | 0.00 | 44 | 1019.5 | |
| 20260831171020 | 26 | 269 | 1.6 | 6.4 | 0.00 | 0.00 | 0.00 | 41 | 1019.3 |
| 20260831170018 | 26 | 0.0 | 1.6 | 0.00 | 0.00 | 0.00 | 42 | 1019.6 | |
| 20260831165015 | 26 | 0.0 | 0.0 | 0.00 | 0.00 | 0.00 | 41 | 1019.7 | |
| 20260831164024 | 27 | 0.0 | 0.0 | 0.00 | 0.00 | 0.00 | 42 | 1019.7 | |
| 20260831163108 | 25 | 0.0 | 0.0 | 0.00 | 0.00 | 0.00 | 42 | 1019.8 | |
| 20260831162031 | 25 | 0.0 | 0.0 | 0.00 | 0.00 | 0.00 | 41 | 1020.0 | |
| 20260831161016 | 25 | 0.0 | 0.0 | 0.00 | 0.00 | 0.00 | 42 | 1020.1 | |
| 20260831160019 | 24 | 0.0 | 4.8 | 0.00 | 0.00 | 0.00 | 43 | 1020.1 | |
| 20260831155023 | 23 | 0.0 | 0.0 | 0.00 | 0.00 | 0.00 | 45 | 1020.1 | |
| 20260831154026 | 25 | 0.0 | 0.0 | 0.00 | 0.00 | 0.00 | 44 | 1020.3 | |
| 20260831153029 | 23 | 0.0 | 0.0 | 0.00 | 0.00 | 0.00 | 44 | 1020.3 | |
| 20260831152033 | 23 | 0.0 | 0.0 | 0.00 | 0.00 | 0.00 | 46 | 1020.3 | |
| 20260831151018 | 23 | 0.0 | 0.0 | 0.00 | 0.00 | 0.00 | 48 | 1020.5 | |
| 20260831150021 | 23 | 0.0 | 0.0 | 0.00 | 0.00 | 0.00 | 48 | 1020.6 | |
| 20260831145025 | 22 | 0.0 | 0.0 | 0.00 | 0.00 | 0.00 | 50 | 1020.5 | |
| 20260831144028 | 21 | 0.0 | 0.0 | 0.00 | 0.00 | 0.00 | 52 | 1020.6 | |
| 20260831143031 | 21 | 0.0 | 0.0 | 0.00 | 0.00 | 0.00 | 51 | 1020.6 | |
| 20260831142016 | 21 | 0.0 | 0.0 | 0.00 | 0.00 | 0.00 | 52 | 1020.5 | |
| 20260831141019 | 21 | 0.0 | 0.0 | 0.00 | 0.00 | 0.00 | 54 | 1020.5 | |
| 20260831140023 | 20 | 0.0 | 0.0 | 0.00 | 0.00 | 0.00 | 54 | 1020.6 | |
| 20260831135026 | 19 | 0.0 | 0.0 | 0.00 | 0.00 | 0.00 | 56 | 1020.5 | |
| 20260831134044 | 17 | 0.0 | 0.0 | 0.00 | 0.00 | 0.00 | 68 | 1020.6 | |
| 20260831133035 | 17 | 0.0 | 0.0 | 0.00 | 0.00 | 0.00 | 69 | 1020.5 | |
| 20260831132018 | 16 | 0.0 | 0.0 | 0.00 | 0.00 | 0.00 | 73 | 1020.3 | |
| 20260831131016 | 16 | 0.0 | 0.0 | 0.00 | 0.00 | 0.00 | 74 | 1020.4 | |
| 20260831130045 | 16 | 0.0 | 0.0 | 0.00 | 0.00 | 0.00 | 75 | 1020.4 | |
| 20260831125028 | 16 | 0.0 | 0.0 | 0.00 | 0.00 | 0.00 | 76 | 1020.2 | |
| 20260831124031 | 15 | 0.0 | 0.0 | 0.00 | 0.00 | 0.00 | 83 | 1020.2 | |
| 20260831123016 | 15 | 0.0 | 0.0 | 0.00 | 0.00 | 0.00 | 86 | 1020.1 | |
| 20260831122020 | 15 | 270 | 0.0 | 1.6 | 0.00 | 0.00 | 0.00 | 87 | 1020.0 |
| 20260831121023 | 15 | 0.0 | 0.0 | 0.00 | 0.00 | 0.00 | 87 | 1019.9 | |
| 20260831120027 | 14 | 0.0 | 0.0 | 0.00 | 0.00 | 0.00 | 87 | 1019.8 | |
| 20260831115030 | 14 | 0.0 | 0.0 | 0.00 | 0.00 | 0.00 | 87 | 1019.9 | |
| 20260831114015 | 13 | 0.0 | 0.0 | 0.00 | 0.00 | 0.00 | 87 | 1019.9 | |
| 20260831113038 | 13 | 0.0 | 0.0 | 0.00 | 0.00 | 0.00 | 87 | 1019.9 | |
| 20260831112021 | 13 | 0.0 | 0.0 | 0.00 | 0.00 | 0.00 | 86 | 1019.9 | |
| 20260831111025 | 13 | 0.0 | 0.0 | 0.00 | 0.00 | 0.00 | 86 | 1019.9 | |
| 20260831110028 | 13 | 0.0 | 0.0 | 0.00 | 0.00 | 0.00 | 86 | 1019.8 | |
| 20260831105031 | 13 | 0.0 | 0.0 | 0.00 | 0.00 | 0.00 | 86 | 1020.0 | |
| 20260831104017 | 13 | 0.0 | 0.0 | 0.00 | 0.00 | 0.00 | 84 | 1019.8 | |
| 20260831103100 | 13 | 0.0 | 0.0 | 0.00 | 0.00 | 0.00 | 84 | 1019.6 | |
| 20260831102023 | 13 | 0.0 | 0.0 | 0.00 | 0.00 | 0.00 | 84 | 1019.5 | |
| 20260831101026 | 13 | 0.0 | 0.0 | 0.00 | 0.00 | 0.00 | 84 | 1019.4 | |
| 20260831100044 | 13 | 0.0 | 0.0 | 0.00 | 0.00 | 0.00 | 84 | 1019.2 | |
| 20260831095015 | 14 | 0.0 | 0.0 | 0.00 | 0.00 | 0.00 | 84 | 1018.9 | |
| 20260831094018 | 14 | 0.0 | 0.0 | 0.00 | 0.00 | 0.00 | 84 | 1018.9 | |
| 20260831093015 | 14 | 0.0 | 0.0 | 0.00 | 0.00 | 0.00 | 84 | 1018.8 | |
| 20260831092025 | 14 | 0.0 | 0.0 | 0.00 | 0.00 | 0.00 | 84 | 1018.7 | |
| 20260831091028 | 15 | 0.0 | 0.0 | 0.00 | 0.00 | 0.00 | 84 | 1018.5 | |
| 20260831090032 | 15 | 0.0 | 0.0 | 0.00 | 0.00 | 0.00 | 83 | 1018.4 | |
| 20260831085036 | 15 | 0.0 | 0.0 | 0.00 | 0.00 | 0.00 | 82 | 1018.5 | |
| 20260831084020 | 15 | 0.0 | 0.0 | 0.00 | 0.00 | 0.00 | 82 | 1018.4 | |
| 20260831083023 | 15 | 0.0 | 0.0 | 0.00 | 0.00 | 0.00 | 81 | 1018.4 | |
| 20260831082027 | 15 | 0.0 | 0.0 | 0.00 | 0.00 | 0.00 | 81 | 1018.4 | |
| 20260831081030 | 15 | 0.0 | 0.0 | 0.00 | 0.00 | 0.00 | 81 | 1018.2 | |
| 20260831080015 | 15 | 0.0 | 0.0 | 0.00 | 0.00 | 0.00 | 81 | 1018.0 | |
| 20260831075018 | 15 | 0.0 | 0.0 | 0.00 | 0.00 | 0.00 | 80 | 1018.1 | |
| 20260831074022 | 15 | 0.0 | 0.0 | 0.00 | 0.00 | 0.00 | 80 | 1018.0 | |
| 20260831073025 | 16 | 0.0 | 0.0 | 0.00 | 0.00 | 0.00 | 80 | 1018.0 | |
| 20260831072028 | 16 | 0.0 | 0.0 | 0.00 | 0.00 | 0.00 | 79 | 1017.9 | |
| 20260831071031 | 16 | 0.0 | 0.0 | 0.00 | 0.00 | 0.00 | 79 | 1017.6 | |
| 20260831070017 | 16 | 0.0 | 0.0 | 0.00 | 0.00 | 0.00 | 78 | 1017.7 | |
| 20260831065020 | 16 | 0.0 | 0.0 | 0.00 | 0.00 | 0.00 | 78 | 1017.8 | |
| 20260831064023 | 17 | 0.0 | 0.0 | 0.00 | 0.00 | 0.00 | 78 | 1017.7 | |
| 20260831063047 | 17 | 0.0 | 0.0 | 0.00 | 0.00 | 0.00 | 78 | 1017.6 | |
| 20260831062024 | 17 | 0.0 | 0.0 | 0.00 | 0.00 | 0.00 | 78 | 1017.5 | |
| 20260831061056 | 17 | 0.0 | 0.0 | 0.00 | 0.00 | 0.00 | 78 | 1017.4 | |
| 20260831060039 | 17 | 0.0 | 0.0 | 0.00 | 0.00 | 0.00 | 77 | 1017.3 | |
| 20260831055016 | 18 | 0.0 | 0.0 | 0.00 | 0.00 | 0.00 | 77 | 1017.4 | |
| 20260831054146 | 18 | 0.0 | 0.0 | 0.00 | 0.00 | 0.00 | 77 | 1017.3 | |
| 20260831053029 | 18 | 0.0 | 0.0 | 0.00 | 0.00 | 0.00 | 76 | 1017.3 | |
| 20260831052032 | 18 | 0.0 | 0.0 | 0.00 | 0.00 | 0.00 | 75 | 1017.3 | |
| 20260831051017 | 18 | 0.0 | 0.0 | 0.00 | 0.00 | 0.00 | 75 | 1017.2 | |
| 20260831050020 | 19 | 0.0 | 0.0 | 0.00 | 0.00 | 0.00 | 75 | 1017.1 | |
| 20260831045024 | 19 | 0.0 | 0.0 | 0.00 | 0.00 | 0.00 | 74 | 1016.9 | |
| 20260831044027 | 19 | 0.0 | 0.0 | 0.00 | 0.00 | 0.00 | 74 | 1016.9 | |
| 20260831043030 | 19 | 0.0 | 0.0 | 0.00 | 0.00 | 0.00 | 74 | 1016.8 | |
| 20260831042015 | 20 | 0.0 | 0.0 | 0.00 | 0.00 | 0.00 | 73 | 1016.8 | |
| 20260831041019 | 20 | 0.0 | 0.0 | 0.00 | 0.00 | 0.00 | 72 | 1016.6 | |
| 20260831040022 | 20 | 0.0 | 0.0 | 0.00 | 0.00 | 0.00 | 71 | 1016.6 | |
| 20260831035026 | 20 | 0.0 | 0.0 | 0.00 | 0.00 | 0.00 | 70 | 1016.7 | |
| 20260831034049 | 21 | 0.0 | 0.0 | 0.00 | 0.00 | 0.00 | 70 | 1016.8 | |
| 20260831033032 | 21 | 0.0 | 0.0 | 0.00 | 0.00 | 0.00 | 69 | 1016.8 | |
| 20260831032038 | 21 | 0.0 | 0.0 | 0.00 | 0.00 | 0.00 | 69 | 1016.8 | |
| 20260831031041 | 21 | 0.0 | 0.0 | 0.00 | 0.00 | 0.00 | 69 | 1016.8 | |
| 20260831030044 | 21 | 0.0 | 0.0 | 0.00 | 0.00 | 0.00 | 69 | 1016.7 | |
| 20260831025108 | 21 | 0.0 | 0.0 | 0.00 | 0.00 | 0.00 | 69 | 1016.7 | |
| 20260831024024 | 21 | 0.0 | 0.0 | 0.00 | 0.00 | 0.00 | 71 | 1016.7 | |
| 20260831023016 | 21 | 0.0 | 0.0 | 0.00 | 0.00 | 0.00 | 70 | 1016.6 | |
| 20260831022019 | 21 | 0.0 | 0.0 | 0.00 | 0.00 | 0.00 | 70 | 1016.4 | |
| 20260831021016 | 21 | 0.0 | 0.0 | 0.00 | 0.00 | 0.00 | 70 | 1016.5 | |
| 20260831020026 | 21 | 0.0 | 0.0 | 0.00 | 0.00 | 0.00 | 70 | 1016.5 | |
| 20260831015029 | 21 | 0.0 | 0.0 | 0.00 | 0.00 | 0.00 | 70 | 1016.4 | |
| 20260831014032 | 21 | 0.0 | 0.0 | 0.00 | 0.00 | 0.00 | 70 | 1016.2 | |
| 20260831013018 | 21 | 0.0 | 0.0 | 0.00 | 0.00 | 0.00 | 69 | 1016.2 | |
| 20260831012021 | 21 | 0.0 | 0.0 | 0.00 | 0.00 | 0.00 | 69 | 1016.1 | |
| 20260831011045 | 21 | 0.0 | 0.0 | 0.00 | 0.00 | 0.00 | 69 | 1016.0 | |
| 20260831010028 | 22 | 0.0 | 0.0 | 0.00 | 0.00 | 0.00 | 69 | 1016.0 | |
| 20260831005031 | 22 | 0.0 | 0.0 | 0.00 | 0.00 | 0.00 | 65 | 1015.6 | |
| 20260831004036 | 23 | 0.0 | 0.0 | 0.00 | 0.00 | 0.00 | 64 | 1015.5 | |
| 20260831003019 | 23 | 0.0 | 0.0 | 0.00 | 0.00 | 0.00 | 60 | 1015.5 | |
| 20260831002023 | 23 | 0.0 | 0.0 | 0.00 | 0.00 | 0.00 | 59 | 1015.4 | |
| 20260831001026 | 23 | 0.0 | 0.0 | 0.00 | 0.00 | 0.00 | 59 | 1015.4 | |
| 20260831000029 | 23 | 0.0 | 0.0 | 0.00 | 0.00 | 0.00 | 58 | 1015.2 | |
| 20260830235033 | 23 | 0.0 | 0.0 | 0.00 | 0.00 | 0.00 | 58 | 1015.1 | |
| 20260830234018 | 23 | 0.0 | 0.0 | 0.00 | 0.00 | 0.00 | 58 | 1015.1 | |
| 20260830233021 | 23 | 0.0 | 0.0 | 0.00 | 0.00 | 0.00 | 57 | 1015.1 | |
| 20260830232024 | 24 | 225 | 0.0 | 3.2 | 0.00 | 0.00 | 0.00 | 57 | 1015.1 |